Lid_Strength_Index
12 15 15 13 14 15 15 16 16 15 13 14 14 14 14 15 15 16 17 17 17 17 16 15 15 15 14 14 14 13 13 12 11 11 11 12 14 13 14 14 13 13 13 12
15 16 13 13 14 15 15 16 17 16 14 14 15 15 16 16 16 16 17 17 17 16 16 16 16 16 16 15 14 14 13 13 12 12 12 13 14 15 14 14 14 14 14 14
16 14 14 14 15 15 16 17 17 16 16 16 16 17 18 17 17 17 16 16 16 16 17 17 17 17 16 16 16 15 14 14 14 13 13 14 14 15 15 15 15 15 15 15
15 14 14 16 16 15 17 15 16 16 17 19 16 20 18 18 18 17 17 17 17 16 16 17 17 17 17 17 16 15 15 14 14 14 15 15 16 16 15 15 15 15 14 14
15 15 15 16 15 15 16 15 16 17 18 19 19 20 19 18 19 18 17 17 17 17 17 17 17 17 17 17 17 16 15 15 15 15 15 15 16 15 15 15 15 15 14 14
14 14 14 14 15 14 15 16 17 18 19 22 18 18 19 19 17 18 17 17 16 17 17 17 16 16 17 16 16 16 15 15 15 15 15 15 15 16 15 15 15 15 15 15
16 15 15 15 16 16 16 17 20 21 22 21 19 20 17 17 16 16 17 17 16 16 17 17 17 17 17 17 16 16 16 16 15 15 15 15 15 15 15 16 16 16 16 15
17 18 15 15 15 16 18 17 20 23 23 21 18 20 17 16 16 15 15 15 16 17 17 17 17 17 17 17 16 16 16 16 16 15 15 15 15 15 15 15 15 15 15 15
17 17 15 15 15 14 17 18 15 19 25 22 19 17 17 17 17 16 16 16 16 16 17 17 17 17 17 17 16 16 16 16 16 15 15 15 14 14 14 14 14 14 14 14
15 17 16 16 14 15 16 15 18 19 23 25 20 19 17 18 18 17 17 16 16 16 17 16 16 16 16 16 16 16 15 15 14 14 14 14 15 14 14 14 14 14 14 14
14 15 17 16 17 17 17 17 17 17 18 22 24 20 16 16 16 17 16 15 16 16 16 16 16 16 16 16 15 15 14 14 14 14 14 14 14 14 14 14 15 15 14 15
13 15 19 18 16 16 16 16 16 18 21 21 20 20 16 15 15 15 15 15 15 15 16 15 15 15 16 15 15 14 14 14 14 15 14 14 14 15 15 16 16 15 16 16
13 15 19 18 17 17 17 16 16 16 17 21 21 19 15 15 15 14 15 15 15 16 16 16 16 16 15 15 15 15 15 15 14 14 15 15 16 16 16 16 16 16 17 17
11 15 16 17 17 17 18 17 16 15 21 19 17 18 17 16 15 15 15 14 14 15 15 16 16 15 15 15 15 16 15 15 15 16 16 17 17 17 17 16 16 17 17 18
12 16 17 17 17 17 18 18 16 17 15 17 17 16 15 14 14 14 14 14 15 15 15 15 15 16 16 16 16 16 15 16 16 17 17 17 16 16 16 17 17 17 18 18
14 16 15 17 18 18 18 17 17 16 16 17 17 16 14 13 14 15 15 14 14 14 14 14 14 15 15 15 15 14 16 17 16 16 16 16 16 17 17 18 18 19 19 19
15 17 17 19 20 19 19 18 18 17 17 15 17 13 16 16 15 14 14 14 14 13 14 14 14 14 14 14 14 15 16 16 16 16 17 17 17 18 18 19 19 20 20 20
16 16 17 23 21 23 19 21 19 16 16 15 17 17 16 16 17 15 15 14 14 15 15 14 14 14 14 14 14 15 16 16 16 17 17 18 18 19 20 20 20 20 20 20
16 17 22 22 21 19 18 20 20 19 18 15 15 17 18 18 17 17 16 16 15 15 15 14 14 14 14 14 15 16 17 17 17 18 18 19 19 20 21 21 21 20 20 20
16 16 15 23 22 22 20 21 19 18 21 18 15 17 18 18 19 17 16 16 15 14 14 14 13 13 14 15 16 17 18 18 18 18 18 19 19 21 21 20 20 20 20 20
19 19 18 21 20 20 19 19 18 22 19 19 17 17 18 17 15 15 15 15 14 14 14 14 14 14 14 16 17 18 19 19 18 18 19 19 19 20 21 20 20 21 21 21
20 20 22 22 22 22 18 19 19 16 17 17 17 17 17 16 15 15 15 15 15 14 14 14 15 16 17 17 18 18 19 18 19 19 19 21 22 22 21 23 22 22 22 23
21 19 20 19 19 17 16 16 15 15 16 16 16 16 15 15 15 15 15 15 15 14 14 15 16 17 18 18 18 18 18 18 19 21 24 25 23 22 22 23 22 22 22 22
21 19 20 20 19 18 16 15 15 14 15 15 15 15 15 15 14 14 15 15 15 15 16 17 17 18 19 19 17 18 18 19 23 26 25 24 24 23 22 21 20 21 22 22
19 19 22 21 18 16 15 14 13 14 14 14 14 14 14 14 16 15 15 15 15 15 16 16 16 17 18 18 19 19 20 22 23 24 23 23 22 23 22 21 20 20 19 18
17 18 19 20 15 14 14 12 12 13 13 13 13 15 14 14 14 15 15 14 15 15 17 17 17 18 18 18 19 21 23 23 24 23 22 22 22 22 21 21 21 17 15 13